User: anonymous   Login
Location: Garden of he Gods Recreation Area
(37.6010°N, 88.3780°W)
Time: 22:50:34
(UTC-06:00)
Language:

Hubble Space Telescope - Orbit

View from above orbital plane
View from above orbital plane
View from above satellite
View from above satellite

Ground track
Ground track

The orbit data is extracted from the following two-line orbital elements,

1 20580U 90037B   19316.15008134  .00000482  00000-0  18370-4 0  9993
2 20580  28.4704 323.4428 0002432 260.2548 161.4074 15.09297107423032
Epoch (UTC): 12 November 2019 03:36:07
Eccentricity: 0.0002432
inclination: 28.4704°
perigee height: 536 km
apogee height: 540 km
right ascension of ascending node: 323.4428°
argument of perigee: 260.2548°
revolutions per day: 15.09297107
mean anomaly at epoch: 161.4074°
orbit number at epoch: 42303

The dashed part of the orbit path shows where the satellite is in the earth's shadow,  

DLR